Location: Dannhausen
(51.8650°N, 10.1026°E)
Time: 11:09:20
(UTC+00:00)

Cosmos 2344 - Pass Details

Date: 09 April 2020
Orbit: 1251 x 2991 km, 63.3° (Epoch: 25 May)

Event Time Altitude Azimuth Distance (km) Brightness Sun altitude
Rises 20:08:59 0° 307° (NW) 4,415 8.2 -17.5°
Reaches altitude 10° 20:11:38 10° 312° (NW) 3,554 7.2 -17.8°
Maximum altitude 20:20:19 62° 33° (NNE) 1,921 4.5 -18.8°
Enters shadow 20:28:41 21° 108° (ESE) 3,721 5.5 -19.7°
